Location: Beutels
(47.8767°N, 9.8584°E)
Time: 09:57:09
(UTC+00:00)

Cosmos 1408 Rocket - Pass Details

Date: 19 May 2025
Orbit: 594 x 625 km, 82.6° (Epoch: 23 June)

Event Time Altitude Azimuth Distance (km) Brightness Sun altitude
Rises 22:55:30 0° 346° (NNW) 2,883 8.5 -22.0°
Reaches altitude 10° 22:57:46 10° 342° (NNW) 1,969 7.2 -22.0°
Maximum altitude 23:02:00 54° 266° (W) 739 3.8 -22.1°
Enters shadow 23:02:27 51° 241° (WSW) 763 3.8 -22.1°
